Weather History for Goshen, IN

Change the Weather History Date:

Sunday, February 17, 2013

  Actual Average Record
Temperature  
Mean Temperature 21 °F -  
Max Temperature 28 °F 34 °F 57 °F (2011)
Min Temperature 14 °F 18 °F -9 °F (1979)
Degree Days  
Heating Degree Days 44    
Moisture  
Dew Point 11 °F    
Average Humidity 71    
Maximum Humidity 86    
Minimum Humidity 45    
Precipitation  
Precipitation 0.00 in - - ()
Sea Level Pressure  
Sea Level Pressure 30.17 in    
Wind  
Wind Speed 6 mph (WSW)    
Max Wind Speed 10 mph    
Max Gust Speed -    
Visibility 8 miles    
Events Snow    
Averages and records for this station are not official NWS values.
T = Trace of Precipitation, MM = Missing Value Source: NWS Daily Summary

Daily Weather History Graph

Daily Weather History Graph

Search for Another Location

Airport:

Trip Planner

Search our weather history database for the weather conditions in past years. The results will help you decide how hot, cold, wet, or windy it might be!

Date:

Astronomy

Feb. 17, 2013 Rise Set
Actual Time 7:35 AM EST 6:19 PM EST
Civil Twilight 7:06 AM EST 6:47 PM EST
Nautical Twilight 6:34 AM EST 7:20 PM EST
Astronomical Twilight 6:02 AM EST 7:52 PM EST
Moon 11:21 AM EST (2/17) 1:20 AM EST (2/17)
Length of Visible Light 11h 40m
Length of Day
10h 44m
Waxing Crescent, 49% of the Moon is Illuminated
Feb 17
Waxing Crescent
Feb 17
First Quarter
Feb 25
Full
Mar 4
Last Quarter
Mar 11
New

Hourly Weather History & Observations

Time (EST) Temp. Windchill Dew Point Humidity Pressure Visibility Wind Dir Wind Speed Gust Speed Precip Events Conditions
12:53 AM 16.0 °F 5.3 °F 10.0 °F 77% 30.14 in 9.0 mi West 8.1 mph - 0.00 in Snow Light Snow
1:03 AM 15.8 °F 3.4 °F 10.4 °F 79% 30.10 in 2.5 mi West 10.4 mph - 0.00 in Snow Light Snow
1:11 AM 15.8 °F 5.1 °F 10.4 °F 79% 30.10 in 1.0 mi West 8.1 mph - 0.00 in Snow Light Snow
1:19 AM 15.8 °F 4.2 °F 10.4 °F 79% 30.10 in 3.0 mi West 9.2 mph - 0.00 in Snow Light Snow
1:39 AM 15.8 °F 4.2 °F 12.2 °F 86% 30.10 in 5.0 mi West 9.2 mph - 0.00 in Snow Light Snow
1:53 AM 16.0 °F 5.3 °F 12.0 °F 84% 30.14 in 2.0 mi West 8.1 mph - 0.00 in Snow Light Snow
2:30 AM 15.8 °F 6.1 °F 12.2 °F 86% 30.10 in 5.0 mi West 6.9 mph - 0.00 in   Overcast
2:53 AM 15.1 °F 5.2 °F 10.9 °F 84% 30.14 in 10.0 mi WNW 6.9 mph - 0.00 in   Mostly Cloudy
3:29 AM 14.0 °F 5.1 °F 10.4 °F 86% 30.10 in 10.0 mi NW 5.8 mph - N/A   Mostly Cloudy
3:53 AM 15.1 °F - 10.9 °F 84% 30.15 in 10.0 mi Calm Calm - N/A   Overcast
4:53 AM 14.0 °F - 10.0 °F 84% 30.16 in 10.0 mi Calm Calm - N/A   Overcast
5:09 AM 14.0 °F 8.2 °F 10.4 °F 86% 30.12 in 10.0 mi WSW 3.5 mph - N/A   Overcast
5:53 AM 15.1 °F - 10.9 °F 84% 30.17 in 10.0 mi Calm Calm - N/A   Overcast
6:53 AM 15.1 °F - 10.9 °F 84% 30.19 in 10.0 mi Calm Calm - N/A   Overcast
7:14 AM 14.0 °F - 10.4 °F 86% 30.15 in 10.0 mi Calm Calm - N/A   Overcast
7:53 AM 15.1 °F 9.4 °F 10.9 °F 84% 30.21 in 8.0 mi WSW 3.5 mph - N/A   Overcast
8:53 AM 17.1 °F - 12.9 °F 84% 30.22 in 9.0 mi Calm Calm - N/A   Overcast
9:53 AM 19.0 °F 13.9 °F 12.9 °F 77% 30.23 in 10.0 mi SW 3.5 mph - N/A   Overcast
10:53 AM 21.0 °F 14.6 °F 12.9 °F 71% 30.25 in 10.0 mi SW 4.6 mph - N/A   Overcast
11:53 AM 24.1 °F 18.2 °F 12.0 °F 60% 30.25 in 10.0 mi SW 4.6 mph - N/A   Partly Cloudy
12:53 PM 26.1 °F 18.4 °F 10.0 °F 51% 30.22 in 10.0 mi SW 6.9 mph - N/A   Clear
1:53 PM 27.0 °F 18.7 °F 10.0 °F 49% 30.21 in 10.0 mi WSW 8.1 mph - N/A   Overcast
2:53 PM 28.0 °F 22.8 °F 9.0 °F 45% 30.21 in 10.0 mi Variable 4.6 mph - N/A   Mostly Cloudy
3:53 PM 28.0 °F 21.7 °F 10.0 °F 47% 30.20 in 10.0 mi SW 5.8 mph - N/A   Partly Cloudy
4:53 PM 28.0 °F 19.3 °F 9.0 °F 45% 30.19 in 10.0 mi SW 9.2 mph - N/A   Clear
5:53 PM 27.0 °F 19.5 °F 10.0 °F 49% 30.18 in 10.0 mi SSW 6.9 mph - N/A   Clear
6:53 PM 25.0 °F 17.1 °F 10.0 °F 53% 30.18 in 10.0 mi South 6.9 mph - N/A   Clear
7:53 PM 23.0 °F 17.0 °F 10.0 °F 58% 30.17 in 10.0 mi SSE 4.6 mph - N/A   Clear
8:53 PM 23.0 °F 15.8 °F 12.0 °F 63% 30.18 in 10.0 mi SSE 5.8 mph - N/A   Clear
9:53 PM 23.0 °F 14.7 °F 12.0 °F 63% 30.18 in 10.0 mi SE 6.9 mph - N/A   Clear
10:53 PM 23.0 °F 12.4 °F 12.0 °F 63% 30.16 in 10.0 mi SE 10.4 mph - N/A   Clear